Regional Weather Roundup
Issued by NWS

Home | Current Version | Previous Version | Graphics & Text | Print | Product List | Glossary On
Versions: 1 2 3 4 5 6 7 8 9 10 11 12 13 14 15 16 17 18 19 20 21 22 23 24 25 26 27 28 29 30 31 32 33 34 35 36 37 38 39 40 41 42 43 44 45 46 47 48 49 50
000
ASUS43 KMPX 270301
RWRMN
WEATHER ROUNDUP FOR MINNESOTA
NATIONAL WEATHER SERVICE TWIN CITIES/CHANHASSEN MN
1000 PM CDT MON JUN 26 2017


NOTE: "FAIR" INDICATES FEW OR NO CLOUDS BELOW 12,000 FEET WITH NO
SIGNIFICANT WEATHER AND/OR OBSTRUCTIONS TO VISIBILITY. N/A MEANS
CURRENT SKY AND/OR WEATHER CONDITIONS ARE NOT AVAILABLE.

MNZ060>063-068>070-270400-
   Twin Cities Metro

CITY           SKY/WX    TMP DP  RH WIND       PRES   REMARKS
TWIN CITIES    CLEAR     64  43  46 W5        30.10R
ST PAUL        CLEAR     60  46  59 CALM      30.10R
CRYSTAL        CLEAR     58  42  55 CALM      30.09R
BLAINE         CLEAR     57  48  72 CALM      30.10R
LAKEVILLE      CLEAR     59  48  67 SW3       30.11R
EDEN PRAIRIE   CLEAR     65  45  48 W3        30.09S
SOUTH ST PAUL  CLEAR     60  48  64 CALM      30.10R
LAKE ELMO      FAIR      55  50  82 CALM      30.11R
$$
MNZ001>005-007-008-013>017-022>024-027-028-270400-
   Northwest Minnesota

CITY           SKY/WX    TMP DP  RH WIND       PRES   REMARKS
BEMIDJI        CLEAR     59  44  56 SW5       30.07R
HALLOCK        CLEAR     59  48  67 SW3       30.03R
ROSEAU         CLEAR     63  46  55 W3        30.04R
WARROAD        CLEAR     61  48  63 W5        30.04R
CROOKSTON      CLEAR     61  46  59 SW5       30.06S
FOSSTON        CLEAR     52  43  71 CALM      30.08S
DETROIT LAKES  CLEAR     57  46  67 CALM      30.10S
MOORHEAD       CLEAR     63  39  42 SW3       30.08S HAZE
PARK RAPIDS    CLEAR     57  42  57 CALM      30.08S
MAHNOMEN       FAIR      61  42  50 CALM      30.08S
$$
MNZ006-009>011-018-025>026-270400-
   North Central Minnesota

CITY           SKY/WX    TMP DP  RH WIND       PRES   REMARKS
BAUDETTE       CLEAR     55  51  86 CALM      30.03S
FLAG ISLAND    CLEAR     64  48  55 CALM      30.01R
INTL FALLS     CLEAR     50  47  89 CALM      30.02R
WASKISH        CLEAR     61  54  77 W3        30.05R
BIG FORK       CLEAR     52  48  87 CALM      30.05R
LONGVILLE      CLEAR     52  46  82 CALM      30.08R
GRAND RAPIDS   CLEAR     58  45  62 W3        30.08R
CRANE LAKE     MOCLDY    54  52  94 CALM      30.03S
ORR            CLEAR     52  46  82 CALM      30.02R
COOK           CLEAR     52  50  93 CALM      30.04R
WALKER         FAIR      52  45  76 W3        30.08R
$$
MNZ012-019>021-037-270400-
   Northeast Minnesota

CITY           SKY/WX    TMP DP  RH WIND       PRES   REMARKS
DULUTH         MOCLDY    55  50  83 W8        30.05R
ELY            MOCLDY    52  48  87 CALM      30.03R
HIBBING        PTCLDY    52  47  83 CALM      30.04S
EVELETH        CLEAR     57  47  71 W3        30.05S
DULUTH HARBOR  CLOUDY    57  52  82 CALM      30.05R
TWO HARBORS    CLEAR     55  52  88 W3        30.03R
SILVER BAY     CLEAR     52  50  93 CALM      30.02R
GRAND MARAIS     N/A     51  49  92 CALM      30.00R
G MARAIS ARPRT CLEAR     50  43  76 W3        30.02S
$$
MNZ029>031-032-039>041-046>048-054>057-064-270400-
   West Central Minnesota

CITY           SKY/WX    TMP DP  RH WIND       PRES   REMARKS
FERGUS FALLS   CLEAR     61  45  55 SW5       30.08R
WHEATON        CLEAR     61  43  51 S5        30.12S
MORRIS         CLEAR     61  43  51 CALM      30.11S
ALEXANDRIA     CLEAR     57  43  59 SW5       30.12S
ELBOW LAKE     FAIR      61  44  54 SW6       30.11S
WADENA         CLEAR     54  45  71 CALM      30.10R
GLENWOOD       CLEAR     61  43  51 CALM      30.13R
APPLETON       CLEAR     61  48  63 SW3       30.12S
BENSON         CLEAR     57  45  62 CALM      30.14R
ORTONVILLE     CLEAR     61  39  44 S3        30.12S
MADISON        CLEAR     66  39  37 CALM      30.13R
WILLMAR        FAIR      61  46  59 CALM      30.13S
$$
MNZ033>034-036-042>043-049>051-058-059-270400-
   Central Minnesota

CITY           SKY/WX    TMP DP  RH WIND       PRES   REMARKS
ST CLOUD       CLEAR     56  47  71 CALM      30.10R
SAUK CENTRE    FAIR      56  44  62 CALM      30.11S
PAYNESVILLE    CLEAR     54  43  66 CALM      30.12R
AITKIN         CLEAR     48  45  87 CALM      30.07R
PINE RIVER     CLEAR     54  46  76 CALM      30.12R
BRAINERD       CLEAR     54  46  74 S3        30.09S
STAPLES        CLEAR     55  43  62 CALM      30.10R
LONG PRAIRIE   FAIR      57  43  58 SW3       30.11S
LITTLE FALLS   CLEAR     54  43  66 CALM      30.10S
LITCHFIELD     CLEAR     63  48  59 CALM      30.12R
BUFFALO        CLEAR     60  45  57 CALM      30.11S
MAPLE LAKE     CLEAR     57  47  69 CALM      30.11S
HUTCHINSON     CLEAR     58  49  71 W3        30.13R
$$
MNZ037-044-045-052-053-270400-
   East Central Minnesota

CITY           SKY/WX    TMP DP  RH WIND       PRES   REMARKS
PRINCETON      CLEAR     54  48  82 CALM      30.10R
MORA           CLEAR     55  46  71 CALM      30.10S
CAMBRIDGE      CLEAR     57  45  62 CALM      30.08R
RUSH CITY      MOCLDY    54  46  76 W3        30.09R
MOOSE LAKE     PTCLDY    52  46  82 W3        30.05R
HINCKLEY       FAIR      54  46  76 W3        30.08R
CLOQUET        CLOUDY    55  46  71 SW3       30.06S
MCGREGOR       CLEAR     59  43  55 W3        30.07S
$$
MNZ071>073-080-081-089-090-097-098-270400-
   Southwest Minnesota

CITY           SKY/WX    TMP DP  RH WIND       PRES   REMARKS
MONTEVIDEO     CLEAR     63  39  42 CALM      30.13S
GRANITE FALLS  CLEAR     60  47  62 CALM      30.14S
CANBY          CLEAR     57  47  71 CALM      30.14S
MARSHALL       CLEAR     61  44  53 CALM      30.14S
REDWOOD FALLS  CLEAR     63  40  42 W3        30.12S
OLIVIA         CLEAR     61  41  48 CALM      30.12S
PIPESTONE      CLEAR     61  39  44 CALM      30.15R
WINDOM         CLEAR     57  41  54 CALM      30.15R
WORTHINGTON    CLEAR     59  45  59 CALM      30.16R
JACKSON        CLEAR     57  43  58 CALM      30.15S
TRACY          CLEAR     60  45  57 CALM      30.14S
SLAYTON        CLEAR     61  42  49 CALM      30.15F
$$
MNZ065>067-074>077-082>085-091>093-270400-
   South Central Minnesota

CITY           SKY/WX    TMP DP  RH WIND       PRES   REMARKS
MANKATO        CLEAR     63  43  48 CALM      30.13R
NEW ULM        CLEAR     61  41  48 NW3       30.13R
ST JAMES       CLEAR     61  45  55 CALM      30.14R
FAIRMONT       CLEAR     59  45  59 CALM      30.14R
GLENCOE        CLEAR     60  50  69 CALM      30.11R
FARIBAULT      PTCLDY    55  48  76 CALM      30.12R
OWATONNA       CLEAR     59  46  63 SE3       30.13R
WASECA         CLEAR     55  45  67 CALM      30.14R
ALBERT LEA     CLEAR     57  48  72 CALM      30.13R
$$
MNZ078>079-086>088-094>096-270400-
   Southeast Minnesota

CITY           SKY/WX    TMP DP  RH WIND       PRES   REMARKS
ROCHESTER      CLEAR     59  45  59 CALM      30.13R
RED WING       CLEAR     54  48  82 N3        30.10R
STANTON        CLEAR     57  51  79 S3        30.10R
DODGE CENTER   CLEAR     55  48  76 CALM      30.13R
WINONA         CLEAR     55  46  71 CALM      30.12R
AUSTIN         CLEAR     55  45  67 CALM      30.13R
PRESTON        CLEAR     58  44  60 CALM      30.13S
$$
ABBREVIATIONS USED IN REMARKS
   TC - TEMPERATURES IN CELSIUS
  WCI - WIND CHILL INDEX
   HX - HEAT INDEX
  VSB - VISIBILITY
$$



USA.gov is the U.S. government's official web portal to all federal, state and local government web resources and services.